Opa Locka, FL

11:32 AM EDT on March 23, 2017 (GMT -0400)
Opa Locka

Weather History for KOPF - October, 2013

Change the Weather History Date:

Tuesday, October 29, 2013

  Actual Average Record
Temperature  
Mean Temperature 76 °F -  
Max Temperature 84 °F 83 °F 90 °F (1985)
Min Temperature 69 °F 68 °F 54 °F (2008)
Cooling Degree Days 12    
Growing Degree Days 26 (Base 50)    
Moisture  
Dew Point 66 °F    
Average Humidity 69    
Maximum Humidity 87    
Minimum Humidity 56    
Precipitation  
Precipitation 0.00 in - - ()
Sea Level Pressure  
Sea Level Pressure 30.14 in    
Wind  
Wind Speed 8 mph (NE)    
Max Wind Speed 18 mph    
Max Gust Speed 23 mph    
Visibility 10 miles    
Events      
Averages and records for this station are not official NWS values.
T = Trace of Precipitation, MM = Missing Value Source: NWS Daily Summary

Daily Weather History Graph

Daily Weather History Graph

Search for Another Location

Airport or City:

Trip Planner

Search our weather history database for the weather conditions in past years. The results will help you decide how hot, cold, wet, or windy it might be!

Date:

Astronomy

Oct. 29, 2013 Rise Set
Actual Time 7:27 AM EDT 6:41 PM EDT
Civil Twilight 7:04 AM EDT 7:04 PM EDT
Nautical Twilight 6:37 AM EDT 7:32 PM EDT
Astronomical Twilight 6:10 AM EDT 7:59 PM EDT
Moon 2:45 AM EDT (10/29) 3:28 PM EDT (10/29)
Length of Visible Light 12h 00m
Length of Day
11h 13m
Waning Crescent, 25% of the Moon is Illuminated
Oct 29
Waning Crescent
Nov 3
New
Nov 10
First Quarter
Nov 17
Full
Nov 25
Last Quarter

Hourly Weather History & Observations

Time (EDT) Temp. Heat Index Dew Point Humidity Pressure Visibility Wind Dir Wind Speed Gust Speed Precip Events Conditions
12:53 AM 72.0 °F - 64.0 °F 76% 30.13 in 10.0 mi NNE 3.5 mph - N/A   Clear
1:53 AM 72.0 °F - 64.9 °F 78% 30.12 in 10.0 mi NNE 4.6 mph - N/A   Clear
2:53 AM 71.1 °F - 64.9 °F 81% 30.11 in 10.0 mi North 4.6 mph - N/A   Clear
3:53 AM 70.0 °F - 64.9 °F 84% 30.10 in 10.0 mi North 4.6 mph - N/A   Clear
4:53 AM 70.0 °F - 64.9 °F 84% 30.10 in 10.0 mi North 4.6 mph - N/A   Clear
5:53 AM 69.1 °F - 64.9 °F 87% 30.12 in 10.0 mi North 4.6 mph - N/A   Clear
6:53 AM 69.1 °F - 64.9 °F 87% 30.14 in 10.0 mi North 6.9 mph - N/A   Clear
7:53 AM 70.0 °F - 66.0 °F 87% 30.15 in 10.0 mi North 4.6 mph - N/A   Partly Cloudy
8:53 AM 73.9 °F - 66.9 °F 79% 30.17 in 10.0 mi North 5.8 mph - N/A   Scattered Clouds
9:53 AM 80.1 °F 82.3 °F 66.9 °F 64% 30.18 in 10.0 mi NE 9.2 mph - N/A   Partly Cloudy
10:53 AM 82.9 °F 85.0 °F 66.0 °F 56% 30.18 in 10.0 mi ENE 15.0 mph - N/A   Scattered Clouds
11:53 AM 84.0 °F 87.0 °F 68.0 °F 58% 30.17 in 10.0 mi ENE 18.4 mph 23.0 mph N/A   Mostly Cloudy
12:53 PM 82.9 °F 85.8 °F 68.0 °F 60% 30.15 in 10.0 mi ENE 17.3 mph - N/A   Mostly Cloudy
1:53 PM 84.0 °F 86.5 °F 66.9 °F 56% 30.12 in 10.0 mi ENE 15.0 mph - N/A   Scattered Clouds
2:53 PM 84.0 °F 87.0 °F 68.0 °F 58% 30.11 in 10.0 mi East 16.1 mph 23.0 mph N/A   Mostly Cloudy
3:53 PM 84.0 °F 86.5 °F 66.9 °F 56% 30.10 in 10.0 mi ENE 16.1 mph - N/A   Mostly Cloudy
4:53 PM 82.9 °F 85.0 °F 66.0 °F 56% 30.11 in 10.0 mi ENE 18.4 mph - N/A   Partly Cloudy
5:53 PM 81.0 °F 83.0 °F 66.0 °F 60% 30.12 in 10.0 mi NE 12.7 mph 20.7 mph N/A   Partly Cloudy
6:53 PM 79.0 °F - 64.9 °F 62% 30.14 in 10.0 mi ENE 13.8 mph - N/A   Clear
7:53 PM 78.1 °F - 64.0 °F 62% 30.15 in 10.0 mi ENE 10.4 mph - N/A   Clear
8:53 PM 78.1 °F - 64.9 °F 64% 30.16 in 10.0 mi ENE 12.7 mph - N/A   Clear
9:53 PM 78.1 °F - 64.9 °F 64% 30.17 in 10.0 mi ENE 12.7 mph - N/A   Clear
10:53 PM 78.1 °F - 64.9 °F 64% 30.17 in 10.0 mi East 13.8 mph - N/A   Clear
11:53 PM 77.0 °F - 64.0 °F 64% 30.17 in 10.0 mi ENE 9.2 mph - N/A   Clear